| time (UTC) | temp F | wind direction | speed knots | gust knots | rain 1hr in | rain 24hr in | rain mn in | humidity % | barometer mb |
| 20260506232024 | 55 | 206 | 1.7 | 2.6 | 0.12 | 0.67 | 0.67 | 99 | 1005.5 |
| 20260506231522 | 55 | 310 | 0.0 | 2.6 | 0.05 | 0.65 | 0.65 | 99 | 1005.5 |
| 20260506231020 | 55 | 208 | 1.7 | 4.3 | 0.02 | 0.65 | 0.65 | 99 | 1005.6 |
| 20260506230516 | 55 | 248 | 1.7 | 6.1 | 0.00 | 0.64 | 0.64 | 99 | 1005.6 |
| 20260506230014 | 55 | 237 | 2.6 | 3.5 | 0.00 | 0.64 | 0.64 | 99 | 1005.6 |
| 20260506225510 | 55 | 135 | 0.0 | 1.7 | 0.00 | 0.64 | 0.64 | 99 | 1005.5 |
| 20260506225006 | 55 | 216 | 1.7 | 2.6 | 0.02 | 0.64 | 0.64 | 99 | 1005.5 |
| 20260506224503 | 55 | 246 | 0.0 | 2.6 | 0.02 | 0.64 | 0.64 | 99 | 1005.7 |
| 20260506224000 | 55 | 238 | 0.0 | 3.5 | 0.00 | 0.64 | 0.64 | 99 | 1005.7 |
| 20260506223456 | 55 | 228 | 0.0 | 1.7 | 0.00 | 0.64 | 0.64 | 99 | 1005.7 |
| 20260506222953 | 55 | 205 | 2.6 | 3.5 | 0.00 | 0.64 | 0.64 | 99 | 1005.6 |
| 20260506222449 | 55 | 261 | 1.7 | 4.3 | 0.00 | 0.64 | 0.64 | 99 | 1005.7 |
| 20260506221946 | 55 | 244 | 0.0 | 5.2 | 0.00 | 0.64 | 0.64 | 99 | 1005.7 |
| 20260506221443 | 55 | 250 | 2.6 | 3.5 | 0.00 | 0.64 | 0.64 | 99 | 1005.6 |
| 20260506220936 | 55 | 253 | 1.7 | 2.6 | 0.02 | 0.64 | 0.64 | 99 | 1005.6 |
| 20260506220431 | 55 | 274 | 1.7 | 3.5 | 0.07 | 0.64 | 0.64 | 99 | 1005.6 |
| 20260506215928 | 55 | 215 | 0.9 | 3.5 | 0.07 | 0.63 | 0.63 | 99 | 1005.6 |
| 20260506215424 | 55 | 238 | 2.6 | 5.2 | 0.05 | 0.63 | 0.63 | 99 | 1005.7 |
| 20260506214920 | 55 | 269 | 0.0 | 4.3 | 0.05 | 0.62 | 0.62 | 99 | 1005.8 |
| 20260506214417 | 55 | 284 | 1.7 | 4.3 | 0.00 | 0.61 | 0.61 | 99 | 1005.6 |
| 20260506213915 | 55 | 274 | 1.7 | 4.3 | 0.00 | 0.61 | 0.61 | 99 | 1005.6 |
| 20260506213412 | 55 | 258 | 2.6 | 3.5 | 0.02 | 0.61 | 0.61 | 99 | 1005.6 |
| 20260506212910 | 55 | 198 | 1.7 | 6.1 | 0.02 | 0.61 | 0.61 | 99 | 1005.5 |
| 20260506212405 | 55 | 235 | 0.9 | 6.1 | 0.00 | 0.61 | 0.61 | 99 | 1005.6 |
| 20260506211900 | 55 | 246 | 3.5 | 6.1 | 0.00 | 0.61 | 0.61 | 99 | 1005.5 |
| 20260506211357 | 55 | 275 | 0.0 | 2.6 | 0.00 | 0.61 | 0.61 | 99 | 1005.5 |
| 20260506210854 | 56 | 225 | 2.6 | 4.3 | 0.00 | 0.61 | 0.61 | 99 | 1005.4 |
| 20260506210350 | 55 | 152 | 1.7 | 2.6 | 0.00 | 0.61 | 0.61 | 99 | 1005.5 |
| 20260506205848 | 55 | 199 | 1.7 | 5.2 | 0.00 | 0.61 | 0.61 | 99 | 1005.4 |
| 20260506205344 | 55 | 219 | 1.7 | 6.1 | 0.00 | 0.61 | 0.61 | 99 | 1005.5 |
| 20260506204840 | 55 | 240 | 1.7 | 5.2 | 0.02 | 0.61 | 0.61 | 99 | 1005.4 |
| 20260506204338 | 56 | 269 | 0.0 | 4.3 | 0.02 | 0.61 | 0.61 | 99 | 1005.5 |
| 20260506203835 | 56 | 222 | 2.6 | 4.3 | 0.02 | 0.61 | 0.61 | 99 | 1005.4 |
| 20260506203332 | 56 | 208 | 1.7 | 2.6 | 0.07 | 0.60 | 0.60 | 99 | 1005.7 |
| 20260506202829 | 56 | 239 | 2.6 | 4.3 | 0.09 | 0.60 | 0.60 | 99 | 1005.7 |
| 20260506202326 | 56 | 203 | 3.5 | 6.1 | 0.14 | 0.59 | 0.59 | 99 | 1006.0 |
| 20260506201823 | 56 | 240 | 2.6 | 6.1 | 0.09 | 0.58 | 0.58 | 99 | 1005.8 |
| 20260506201320 | 56 | 249 | 2.6 | 4.3 | 0.05 | 0.57 | 0.57 | 99 | 1005.7 |
| 20260506200817 | 56 | 290 | 1.7 | 7.0 | 0.09 | 0.56 | 0.56 | 99 | 1006.0 |
| 20260506200313 | 56 | 245 | 1.7 | 7.0 | 0.05 | 0.56 | 0.56 | 99 | 1006.0 |
| 20260506195809 | 56 | 236 | 1.7 | 2.6 | 0.05 | 0.55 | 0.55 | 99 | 1006.1 |
| 20260506195306 | 56 | 239 | 5.2 | 6.1 | 0.09 | 0.55 | 0.55 | 99 | 1006.3 |
| 20260506194804 | 56 | 244 | 2.6 | 7.0 | 0.09 | 0.54 | 0.54 | 99 | 1006.2 |
| 20260506194300 | 56 | 219 | 2.6 | 2.6 | 0.24 | 0.53 | 0.53 | 99 | 1006.4 |
| 20260506193758 | 56 | 122 | 1.7 | 5.2 | 0.24 | 0.52 | 0.52 | 99 | 1006.4 |
| 20260506193254 | 56 | 71 | 1.7 | 7.0 | 0.17 | 0.49 | 0.49 | 99 | 1006.3 |
| 20260506192750 | 56 | 209 | 2.6 | 3.5 | 0.17 | 0.47 | 0.47 | 99 | 1006.5 |
| 20260506192248 | 56 | 233 | 3.5 | 7.8 | 0.14 | 0.46 | 0.46 | 99 | 1006.6 |
| 20260506191744 | 56 | 224 | 2.6 | 7.0 | 0.14 | 0.45 | 0.45 | 99 | 1006.7 |
| 20260506191240 | 56 | 275 | 3.5 | 6.1 | 0.12 | 0.43 | 0.43 | 99 | 1006.7 |
| 20260506190738 | 56 | 236 | 1.7 | 4.3 | 0.17 | 0.42 | 0.42 | 99 | 1006.7 |
| 20260506190234 | 56 | 203 | 3.5 | 7.8 | 0.28 | 0.40 | 0.40 | 99 | 1006.8 |
| 20260506185731 | 56 | 248 | 2.6 | 3.5 | 0.61 | 0.38 | 0.38 | 99 | 1006.8 |
| 20260506185228 | 56 | 241 | 3.5 | 6.1 | 0.52 | 0.35 | 0.35 | 99 | 1006.7 |
| 20260506184725 | 56 | 214 | 1.7 | 13.0 | 0.17 | 0.28 | 0.28 | 99 | 1006.8 |
| 20260506184222 | 56 | 237 | 2.6 | 11.3 | 0.12 | 0.26 | 0.26 | 99 | 1006.7 |
| 20260506183719 | 56 | 282 | 1.7 | 7.8 | 0.09 | 0.24 | 0.24 | 99 | 1006.5 |
| 20260506183215 | 56 | 273 | 1.7 | 7.8 | 0.12 | 0.24 | 0.24 | 99 | 1006.4 |
| 20260506182712 | 56 | 321 | 1.7 | 4.3 | 0.14 | 0.23 | 0.23 | 99 | 1006.8 |
| 20260506182209 | 56 | 229 | 1.7 | 5.2 | 0.17 | 0.22 | 0.22 | 99 | 1006.9 |
| 20260506181707 | 56 | 202 | 3.5 | 7.8 | 0.24 | 0.20 | 0.20 | 99 | 1006.7 |
| 20260506181204 | 56 | 249 | 1.7 | 4.3 | 0.24 | 0.18 | 0.18 | 99 | 1006.9 |
| 20260506180701 | 56 | 225 | 2.6 | 9.6 | 0.31 | 0.16 | 0.16 | 99 | 1007.1 |
| 20260506180157 | 56 | 232 | 6.1 | 10.4 | 0.31 | 0.14 | 0.14 | 99 | 1007.0 |
| 20260506175654 | 56 | 244 | 0.9 | 4.3 | 0.21 | 0.10 | 0.10 | 99 | 1007.3 |
| 20260506175150 | 56 | 256 | 1.7 | 4.3 | 0.24 | 0.09 | 0.09 | 99 | 1007.4 |
| 20260506174643 | 56 | 203 | 0.9 | 4.3 | 0.17 | 0.06 | 0.06 | 99 | 1007.4 |
| 20260506174139 | 56 | 247 | 2.6 | 3.5 | 0.24 | 0.04 | 0.04 | 99 | 1007.6 |
| 20260506173637 | 56 | 229 | 2.6 | 3.5 | 0.12 | 0.02 | 0.02 | 99 | 1007.7 |
| 20260506173134 | 56 | 231 | 1.7 | 2.6 | 0.00 | 0.00 | 0.00 | 99 | 1007.6 |
| 20260506172631 | 56 | 262 | 1.7 | 5.2 | 0.00 | 0.00 | 0.00 | 99 | 1007.8 |
| 20260506172127 | 56 | 241 | 0.9 | 3.5 | 0.00 | 0.00 | 0.00 | 99 | 1007.7 |
| 20260506171625 | 56 | 298 | 2.6 | 7.0 | 0.00 | 0.00 | 0.00 | 99 | 1007.8 |
| 20260506171122 | 56 | 251 | 1.7 | 4.3 | 0.00 | 0.00 | 0.00 | 99 | 1008.4 |
| 20260506170619 | 56 | 231 | 2.6 | 5.2 | 0.00 | 0.00 | 0.00 | 99 | 1008.2 |
| 20260506170111 | 56 | 246 | 1.7 | 4.3 | 0.00 | 0.00 | 0.00 | 99 | 1008.3 |
| 20260506165609 | 56 | 222 | 3.5 | 3.5 | 0.00 | 0.00 | 0.00 | 99 | 1008.4 |
| 20260506165105 | 56 | 224 | 0.0 | 5.2 | 0.00 | 0.00 | 0.00 | 99 | 1008.5 |
| 20260506164603 | 56 | 228 | 2.6 | 4.3 | 0.00 | 0.00 | 0.00 | 99 | 1008.2 |
| 20260506164100 | 56 | 264 | 1.7 | 4.3 | 0.00 | 0.00 | 0.00 | 99 | 1008.6 |
| 20260506163554 | 56 | 238 | 1.7 | 4.3 | 0.00 | 0.00 | 0.00 | 99 | 1008.4 |
| 20260506163051 | 56 | 220 | 2.6 | 3.5 | 0.00 | 0.00 | 0.00 | 99 | 1008.3 |
| 20260506162547 | 56 | 245 | 2.6 | 3.5 | 0.00 | 0.00 | 0.00 | 99 | 1008.5 |
| 20260506162045 | 56 | 222 | 1.7 | 2.6 | 0.00 | 0.00 | 0.00 | 99 | 1008.5 |
| 20260506161542 | 56 | 211 | 1.7 | 3.5 | 0.02 | 0.00 | 0.00 | 99 | 1008.4 |
| 20260506161039 | 56 | 266 | 1.7 | 3.5 | 0.02 | 0.00 | 0.00 | 99 | 1008.5 |
| 20260506160536 | 56 | 283 | 2.6 | 4.3 | 0.00 | 0.00 | 0.00 | 99 | 1008.5 |
| 20260506160033 | 56 | 267 | 0.0 | 3.5 | 0.00 | 0.00 | 0.00 | 99 | 1008.5 |
| 20260506155532 | 57 | 14 | 4.3 | 6.1 | 0.00 | 0.00 | 0.00 | 99 | 1008.7 |
| 20260506153703 | 56 | 166 | 0.0 | 4.3 | 0.00 | 0.00 | 0.00 | 99 | 1009.0 |
| 20260506153201 | 56 | 186 | 0.9 | 3.5 | 0.00 | 0.00 | 0.00 | 99 | 1008.8 |
| 20260506152658 | 56 | 308 | 0.0 | 2.6 | 0.00 | 0.00 | 0.00 | 99 | 1008.9 |
| 20260506152155 | 56 | 53 | 0.9 | 1.7 | 0.00 | 0.00 | 0.00 | 99 | 1009.2 |
| 20260506151654 | 56 | 46 | 0.0 | 3.5 | 0.00 | 0.00 | 0.00 | 98 | 1009.2 |
| 20260506151150 | 56 | 111 | 0.0 | 2.6 | 0.00 | 0.00 | 0.00 | 97 | 1009.4 |
| 20260506150647 | 57 | 19 | 1.7 | 2.6 | 0.00 | 0.00 | 0.00 | 97 | 1009.3 |
| 20260506150144 | 57 | 37 | 2.6 | 2.6 | 0.00 | 0.00 | 0.00 | 96 | 1009.4 |
| 20260506145641 | 57 | 242 | 2.6 | 4.3 | 0.00 | 0.00 | 0.00 | 95 | 1009.1 |
| 20260506145138 | 57 | 279 | 1.7 | 3.5 | 0.00 | 0.00 | 0.00 | 95 | 1009.3 |
| 20260506144636 | 56 | 110 | 2.6 | 3.5 | 0.00 | 0.00 | 0.00 | 95 | 1009.4 |
| 20260506144132 | 56 | 106 | 0.0 | 3.5 | 0.00 | 0.00 | 0.00 | 95 | 1009.2 |
| 20260506143630 | 57 | 250 | 1.7 | 6.1 | 0.00 | 0.00 | 0.00 | 94 | 1009.4 |
| 20260506143127 | 57 | 255 | 0.9 | 2.6 | 0.00 | 0.00 | 0.00 | 94 | 1009.1 |
| 20260506142626 | 57 | 261 | 3.5 | 4.3 | 0.00 | 0.00 | 0.00 | 93 | 1009.4 |
| 20260506142123 | 57 | 265 | 2.6 | 3.5 | 0.00 | 0.00 | 0.00 | 92 | 1009.5 |
| 20260506141620 | 58 | 198 | 1.7 | 2.6 | 0.00 | 0.00 | 0.00 | 91 | 1009.2 |
| 20260506141119 | 59 | 262 | 1.7 | 3.5 | 0.00 | 0.00 | 0.00 | 91 | 1009.1 |
| 20260506140616 | 58 | 205 | 2.6 | 8.7 | 0.00 | 0.00 | 0.00 | 92 | 1009.3 |
| 20260506140113 | 58 | 158 | 1.7 | 3.5 | 0.00 | 0.00 | 0.00 | 92 | 1009.2 |
| 20260506135610 | 57 | 190 | 2.6 | 7.8 | 0.00 | 0.00 | 0.00 | 93 | 1009.2 |
| 20260506135106 | 57 | 261 | 4.3 | 6.1 | 0.00 | 0.00 | 0.00 | 92 | 1009.2 |
| 20260506134602 | 57 | 238 | 0.9 | 5.2 | 0.00 | 0.00 | 0.00 | 93 | 1009.1 |
| 20260506134059 | 57 | 214 | 0.9 | 2.6 | 0.00 | 0.00 | 0.00 | 94 | 1008.9 |
| 20260506133556 | 56 | 195 | 0.9 | 3.5 | 0.00 | 0.00 | 0.00 | 95 | 1009.1 |
| 20260506133053 | 56 | 138 | 1.7 | 2.6 | 0.00 | 0.00 | 0.00 | 95 | 1009.0 |
| 20260506132550 | 55 | 284 | 1.7 | 3.5 | 0.00 | 0.00 | 0.00 | 96 | 1009.1 |
| 20260506132047 | 55 | 238 | 0.0 | 3.5 | 0.00 | 0.00 | 0.00 | 96 | 1008.9 |
| 20260506131544 | 55 | 135 | 0.0 | 4.3 | 0.00 | 0.00 | 0.00 | 97 | 1009.0 |
| 20260506131040 | 54 | 174 | 0.9 | 4.3 | 0.00 | 0.00 | 0.00 | 98 | 1009.1 |
| 20260506130537 | 54 | 249 | 0.9 | 3.5 | 0.00 | 0.00 | 0.00 | 98 | 1009.3 |
| 20260506130035 | 54 | 221 | 0.0 | 1.7 | 0.00 | 0.00 | 0.00 | 99 | 1009.1 |
| 20260506125533 | 53 | 80 | 0.0 | 2.6 | 0.00 | 0.00 | 0.00 | 99 | 1009.5 |
| 20260506125031 | 53 | 49 | 0.0 | 2.6 | 0.00 | 0.00 | 0.00 | 99 | 1009.6 |
| 20260506124528 | 53 | 269 | 0.0 | 2.6 | 0.00 | 0.00 | 0.00 | 99 | 1009.7 |
| 20260506124026 | 53 | 191 | 2.6 | 3.5 | 0.00 | 0.00 | 0.00 | 99 | 1009.7 |
| 20260506123523 | 53 | 103 | 0.9 | 2.6 | 0.00 | 0.00 | 0.00 | 99 | 1009.5 |
| 20260506123021 | 53 | 289 | 1.7 | 2.6 | 0.00 | 0.00 | 0.00 | 99 | 1009.7 |
| 20260506122517 | 52 | 248 | 1.7 | 4.3 | 0.00 | 0.00 | 0.00 | 99 | 1009.8 |
| 20260506122016 | 52 | 287 | 0.0 | 2.6 | 0.00 | 0.00 | 0.00 | 99 | 1009.6 |
| 20260506121514 | 52 | 199 | 1.7 | 1.7 | 0.00 | 0.00 | 0.00 | 99 | 1009.4 |
| 20260506121010 | 52 | 236 | 1.7 | 3.5 | 0.00 | 0.00 | 0.00 | 99 | 1009.5 |
| 20260506120508 | 52 | 195 | 1.7 | 2.6 | 0.00 | 0.00 | 0.00 | 99 | 1009.6 |
| 20260506120005 | 52 | 72 | 0.0 | 4.3 | 0.00 | 0.00 | 0.00 | 99 | 1009.5 |
| 20260506115502 | 52 | 223 | 1.7 | 2.6 | 0.00 | 0.00 | 0.00 | 99 | 1009.4 |
| 20260506115001 | 51 | 173 | 0.0 | 1.7 | 0.00 | 0.00 | 0.00 | 99 | 1009.5 |
| 20260506114457 | 51 | 345 | 1.7 | 2.6 | 0.00 | 0.00 | 0.00 | 99 | 1009.3 |
| 20260506113956 | 51 | 203 | 0.0 | 1.7 | 0.00 | 0.00 | 0.00 | 99 | 1009.2 |
| 20260506113453 | 51 | 326 | 0.0 | 0.9 | 0.00 | 0.00 | 0.00 | 99 | 1009.3 |
| 20260506112950 | 51 | 303 | 1.7 | 2.6 | 0.00 | 0.00 | 0.00 | 99 | 1009.6 |
| 20260506112448 | 51 | 269 | 0.0 | 2.6 | 0.00 | 0.00 | 0.00 | 99 | 1009.5 |
| 20260506111945 | 51 | 245 | 0.9 | 3.5 | 0.00 | 0.00 | 0.00 | 99 | 1009.4 |
| 20260506111443 | 51 | 249 | 1.7 | 6.1 | 0.00 | 0.00 | 0.00 | 99 | 1009.6 |
| 20260506110940 | 51 | 17 | 1.7 | 3.5 | 0.00 | 0.00 | 0.00 | 99 | 1009.7 |
| 20260506110438 | 51 | 262 | 0.9 | 3.5 | 0.00 | 0.00 | 0.00 | 99 | 1009.8 |
| 20260506105933 | 51 | 250 | 3.5 | 5.2 | 0.00 | 0.00 | 0.00 | 99 | 1009.5 |
| 20260506105430 | 51 | 269 | 1.7 | 3.5 | 0.00 | 0.00 | 0.00 | 99 | 1009.6 |
| 20260506104928 | 51 | 258 | 0.0 | 1.7 | 0.00 | 0.00 | 0.00 | 99 | 1009.5 |
| 20260506104426 | 51 | 236 | 1.7 | 2.6 | 0.00 | 0.00 | 0.00 | 99 | 1009.4 |
| 20260506103924 | 51 | 164 | 1.7 | 7.8 | 0.00 | 0.00 | 0.00 | 99 | 1009.5 |
| 20260506103421 | 51 | 318 | 2.6 | 3.5 | 0.00 | 0.00 | 0.00 | 99 | 1009.5 |
| 20260506102917 | 51 | 96 | 1.7 | 2.6 | 0.00 | 0.00 | 0.00 | 99 | 1009.4 |
| 20260506102416 | 51 | 309 | 0.0 | 3.5 | 0.00 | 0.00 | 0.00 | 99 | 1009.5 |
| 20260506101913 | 51 | 330 | 1.7 | 2.6 | 0.00 | 0.00 | 0.00 | 99 | 1009.5 |
| 20260506101408 | 51 | 66 | 4.3 | 6.1 | 0.00 | 0.00 | 0.00 | 99 | 1009.5 |
| 20260506100905 | 51 | 0 | 2.6 | 3.5 | 0.00 | 0.00 | 0.00 | 99 | 1009.3 |
| 20260506100404 | 51 | 103 | 0.9 | 3.5 | 0.00 | 0.00 | 0.00 | 99 | 1009.2 |
| 20260506095902 | 51 | 96 | 2.6 | 4.3 | 0.00 | 0.00 | 0.00 | 99 | 1009.3 |
| 20260506095400 | 51 | 30 | 2.6 | 3.5 | 0.00 | 0.00 | 0.00 | 99 | 1009.3 |
| 20260506094856 | 50 | 66 | 1.7 | 3.5 | 0.00 | 0.00 | 0.00 | 99 | 1009.4 |
| 20260506094355 | 50 | 54 | 0.9 | 2.6 | 0.00 | 0.00 | 0.00 | 99 | 1009.3 |
| 20260506093852 | 50 | 65 | 0.9 | 2.6 | 0.00 | 0.00 | 0.00 | 99 | 1009.2 |
| 20260506093350 | 50 | 59 | 2.6 | 6.1 | 0.00 | 0.00 | 0.00 | 99 | 1009.1 |
| 20260506092847 | 50 | 122 | 0.0 | 3.5 | 0.00 | 0.00 | 0.00 | 99 | 1009.6 |
| 20260506092345 | 50 | 63 | 1.7 | 4.3 | 0.00 | 0.00 | 0.00 | 99 | 1009.4 |
| 20260506091841 | 50 | 80 | 1.7 | 3.5 | 0.00 | 0.00 | 0.00 | 99 | 1009.3 |
| 20260506091339 | 51 | 73 | 1.7 | 2.6 | 0.00 | 0.00 | 0.00 | 99 | 1009.5 |
| 20260506090836 | 50 | 350 | 1.7 | 2.6 | 0.00 | 0.00 | 0.00 | 99 | 1009.4 |
| 20260506090335 | 51 | 327 | 0.9 | 2.6 | 0.00 | 0.00 | 0.00 | 98 | 1009.5 |
| 20260506085830 | 51 | 352 | 2.6 | 3.5 | 0.00 | 0.00 | 0.00 | 98 | 1009.4 |
| 20260506085326 | 51 | 0 | 0.9 | 3.5 | 0.00 | 0.00 | 0.00 | 97 | 1009.4 |
| 20260506084823 | 51 | 58 | 0.0 | 3.5 | 0.00 | 0.00 | 0.00 | 97 | 1009.6 |
| 20260506084320 | 51 | 109 | 1.7 | 3.5 | 0.00 | 0.00 | 0.00 | 96 | 1009.6 |
| 20260506083817 | 51 | 31 | 1.7 | 3.5 | 0.00 | 0.00 | 0.00 | 96 | 1009.5 |
| 20260506083314 | 52 | 40 | 2.6 | 6.1 | 0.00 | 0.00 | 0.00 | 95 | 1009.6 |
| 20260506082806 | 51 | 318 | 1.7 | 5.2 | 0.00 | 0.00 | 0.00 | 95 | 1009.6 |
| 20260506082304 | 51 | 341 | 1.7 | 1.7 | 0.00 | 0.00 | 0.00 | 95 | 1009.8 |
| 20260506081759 | 52 | 67 | 1.7 | 2.6 | 0.00 | 0.00 | 0.00 | 94 | 1009.5 |
| 20260506081257 | 51 | 35 | 0.9 | 2.6 | 0.00 | 0.00 | 0.00 | 94 | 1009.6 |
| 20260506080755 | 51 | 67 | 1.7 | 1.7 | 0.00 | 0.00 | 0.00 | 93 | 1009.7 |
| 20260506080250 | 51 | 48 | 1.7 | 1.7 | 0.00 | 0.00 | 0.00 | 94 | 1009.7 |
| 20260506073234 | 52 | 59 | 0.9 | 2.6 | 0.00 | 0.00 | 0.00 | 93 | 1009.9 |
| 20260506072731 | 52 | 94 | 0.9 | 1.7 | 0.00 | 0.00 | 0.00 | 93 | 1009.9 |
| 20260506072229 | 52 | 33 | 1.7 | 1.7 | 0.00 | 0.00 | 0.00 | 92 | 1009.9 |
| 20260506071727 | 52 | 36 | 0.9 | 1.7 | 0.00 | 0.00 | 0.00 | 93 | 1009.8 |
| 20260506071224 | 52 | 101 | 0.9 | 0.9 | 0.00 | 0.00 | 0.00 | 93 | 1010.2 |
| 20260506070721 | 52 | 55 | 0.0 | 0.9 | 0.00 | 0.00 | 0.00 | 92 | 1009.7 |
| 20260506070218 | 52 | 149 | 0.0 | 1.7 | 0.00 | 0.00 | 0.00 | 92 | 1010.1 |
| 20260506062155 | 53 | 26 | 0.0 | 2.6 | 0.00 | 0.00 | 0.00 | 91 | 1009.7 |
| 20260506061651 | 53 | 64 | 0.9 | 1.7 | 0.00 | 0.00 | 0.00 | 91 | 1009.8 |
| 20260506061148 | 53 | 104 | 1.7 | 2.6 | 0.00 | 0.00 | 0.00 | 91 | 1009.8 |
| 20260506060647 | 53 | 89 | 0.0 | 1.7 | 0.00 | 0.00 | 0.00 | 91 | 1009.8 |
| 20260506060143 | 53 | 108 | 1.7 | 1.7 | 0.00 | 0.00 | 0.00 | 91 | 1010.2 |
| 20260506051115 | 55 | 93 | 0.0 | 2.6 | 0.00 | 0.00 | 0.00 | 88 | 1010.2 |
| 20260506050614 | 55 | 86 | 0.0 | 1.7 | 0.00 | 0.00 | 0.00 | 89 | 1010.2 |
| 20260506050111 | 55 | 37 | 0.9 | 1.7 | 0.00 | 0.00 | 0.00 | 88 | 1010.1 |
| 20260506045104 | 55 | 50 | 0.0 | 1.7 | 0.00 | 0.00 | 0.00 | 87 | 1010.3 |
| 20260506044602 | 55 | 106 | 0.0 | 1.7 | 0.00 | 0.00 | 0.00 | 87 | 1010.3 |
| 20260506044058 | 56 | 156 | 0.0 | 1.7 | 0.00 | 0.00 | 0.00 | 87 | 1010.2 |
| 20260506043555 | 56 | 185 | 0.0 | 0.9 | 0.00 | 0.00 | 0.00 | 86 | 1010.3 |
| 20260506043054 | 57 | 304 | 1.7 | 5.2 | 0.00 | 0.00 | 0.00 | 85 | 1010.3 |
| 20260506042553 | 57 | 295 | 1.7 | 2.6 | 0.00 | 0.00 | 0.00 | 85 | 1010.5 |
| 20260506042050 | 57 | 31 | 0.0 | 1.7 | 0.00 | 0.00 | 0.00 | 86 | 1010.1 |
| 20260506041549 | 57 | 9 | 1.7 | 4.3 | 0.00 | 0.00 | 0.00 | 86 | 1010.3 |
| 20260506041045 | 57 | 306 | 0.0 | 0.9 | 0.00 | 0.00 | 0.00 | 85 | 1010.2 |
| 20260506040543 | 57 | 77 | 1.7 | 3.5 | 0.00 | 0.00 | 0.00 | 85 | 1010.4 |
| 20260506040038 | 57 | 258 | 0.9 | 2.6 | 0.00 | 0.00 | 0.00 | 84 | 1010.4 |
| 20260506035536 | 57 | 164 | 1.7 | 3.5 | 0.00 | 0.00 | 0.00 | 85 | 1010.3 |
| 20260506035032 | 58 | 192 | 0.0 | 3.5 | 0.00 | 0.00 | 0.00 | 84 | 1010.5 |
| 20260506034530 | 58 | 267 | 1.7 | 4.3 | 0.00 | 0.00 | 0.00 | 84 | 1010.2 |
| 20260506034026 | 58 | 140 | 0.0 | 1.7 | 0.00 | 0.00 | 0.00 | 85 | 1010.4 |
| 20260506033524 | 58 | 315 | 0.0 | 2.6 | 0.00 | 0.00 | 0.00 | 84 | 1010.4 |
| 20260506033021 | 58 | 83 | 0.9 | 2.6 | 0.00 | 0.00 | 0.00 | 85 | 1010.2 |
| 20260506032518 | 58 | 69 | 0.0 | 0.9 | 0.00 | 0.00 | 0.00 | 86 | 1010.1 |
| 20260506032015 | 58 | 108 | 1.7 | 1.7 | 0.00 | 0.00 | 0.00 | 86 | 1010.2 |
| 20260506031513 | 59 | 145 | 0.0 | 1.7 | 0.00 | 0.00 | 0.00 | 84 | 1009.8 |
| 20260506031009 | 59 | 224 | 0.0 | 1.7 | 0.00 | 0.00 | 0.00 | 84 | 1009.9 |
| 20260506030508 | 59 | 199 | 0.0 | 3.5 | 0.00 | 0.00 | 0.00 | 84 | 1009.8 |
| 20260506030005 | 59 | 317 | 0.9 | 1.7 | 0.00 | 0.00 | 0.00 | 84 | 1010.3 |
| 20260506025501 | 59 | 44 | 0.0 | 0.9 | 0.00 | 0.00 | 0.00 | 85 | 1010.2 |
| 20260506024957 | 59 | 283 | 0.0 | 1.7 | 0.00 | 0.00 | 0.00 | 84 | 1010.4 |
| 20260506024454 | 59 | 309 | 0.0 | 1.7 | 0.00 | 0.00 | 0.00 | 84 | 1010.3 |
| 20260506023950 | 59 | 331 | 0.0 | 1.7 | 0.00 | 0.00 | 0.00 | 85 | 1010.2 |
| 20260506023447 | 59 | 242 | 1.7 | 2.6 | 0.00 | 0.00 | 0.00 | 85 | 1010.4 |
| 20260506022944 | 59 | 227 | 0.9 | 1.7 | 0.00 | 0.00 | 0.00 | 84 | 1010.3 |
| 20260506022442 | 59 | 129 | 0.0 | 1.7 | 0.00 | 0.00 | 0.00 | 85 | 1010.1 |
| 20260506021940 | 60 | 0 | 1.7 | 2.6 | 0.00 | 0.00 | 0.00 | 84 | 1010.3 |
| 20260506021436 | 59 | 75 | 1.7 | 1.7 | 0.00 | 0.00 | 0.00 | 85 | 1010.4 |
| 20260506020933 | 59 | 89 | 1.7 | 3.5 | 0.00 | 0.00 | 0.00 | 85 | 1010.3 |
| 20260506020431 | 59 | 42 | 1.7 | 1.7 | 0.00 | 0.00 | 0.00 | 86 | 1010.3 |
| 20260506015928 | 60 | 320 | 2.6 | 3.5 | 0.00 | 0.00 | 0.00 | 84 | 1010.3 |
| 20260506015426 | 60 | 96 | 2.6 | 2.6 | 0.00 | 0.00 | 0.00 | 83 | 1010.5 |
| 20260506014922 | 60 | 294 | 0.0 | 2.6 | 0.00 | 0.00 | 0.00 | 81 | 1010.5 |
| 20260506014419 | 60 | 81 | 0.0 | 2.6 | 0.00 | 0.00 | 0.00 | 81 | 1010.2 |
| 20260506013916 | 61 | 101 | 0.0 | 1.7 | 0.00 | 0.00 | 0.00 | 80 | 1010.1 |
| 20260506013414 | 61 | 91 | 1.7 | 3.5 | 0.00 | 0.00 | 0.00 | 79 | 1010.1 |
| 20260506012910 | 61 | 16 | 1.7 | 2.6 | 0.00 | 0.00 | 0.00 | 80 | 1010.2 |
| 20260506012407 | 61 | 58 | 1.7 | 2.6 | 0.00 | 0.00 | 0.00 | 80 | 1010.2 |
| 20260506011904 | 61 | 93 | 0.9 | 1.7 | 0.00 | 0.00 | 0.00 | 78 | 1010.1 |
| 20260506011401 | 62 | 21 | 0.0 | 1.7 | 0.00 | 0.00 | 0.00 | 77 | 1010.2 |
| 20260506010858 | 62 | 32 | 0.0 | 2.6 | 0.00 | 0.00 | 0.00 | 76 | 1010.1 |
| 20260506010356 | 61 | 331 | 1.7 | 2.6 | 0.00 | 0.00 | 0.00 | 76 | 1010.2 |
| 20260506005852 | 61 | 66 | 0.9 | 2.6 | 0.00 | 0.00 | 0.00 | 76 | 1009.9 |
| 20260506005350 | 61 | 44 | 0.0 | 0.9 | 0.00 | 0.00 | 0.00 | 76 | 1009.7 |
| 20260506004845 | 61 | 37 | 0.0 | 1.7 | 0.00 | 0.00 | 0.00 | 76 | 1009.7 |
| 20260506004343 | 62 | 261 | 0.0 | 0.9 | 0.00 | 0.00 | 0.00 | 75 | 1009.8 |
| 20260506003839 | 62 | 230 | 0.0 | 0.9 | 0.00 | 0.00 | 0.00 | 74 | 1009.5 |
| 20260506003336 | 62 | 142 | 0.0 | 1.7 | 0.00 | 0.00 | 0.00 | 74 | 1009.6 |
| 20260506002832 | 62 | 133 | 0.9 | 1.7 | 0.00 | 0.00 | 0.00 | 73 | 1009.5 |
| 20260506002329 | 62 | 74 | 1.7 | 1.7 | 0.00 | 0.00 | 0.00 | 73 | 1009.7 |
| 20260506001824 | 62 | 113 | 1.7 | 2.6 | 0.00 | 0.00 | 0.00 | 72 | 1009.8 |
| 20260506001321 | 62 | 118 | 2.6 | 2.6 | 0.00 | 0.00 | 0.00 | 72 | 1009.4 |
| 20260506000818 | 62 | 274 | 2.6 | 4.3 | 0.00 | 0.00 | 0.00 | 72 | 1009.5 |
| 20260506000316 | 62 | 212 | 0.0 | 2.6 | 0.00 | 0.00 | 0.00 | 72 | 1009.3 |
| 20260505235813 | 63 | 242 | 1.7 | 3.5 | 0.00 | 0.00 | 0.00 | 72 | 1009.2 |
| 20260505235310 | 63 | 302 | 2.6 | 2.6 | 0.00 | 0.00 | 0.00 | 72 | 1009.2 |
| 20260505234807 | 63 | 293 | 2.6 | 5.2 | 0.00 | 0.00 | 0.00 | 72 | 1009.0 |
| 20260505234305 | 63 | 299 | 2.6 | 6.1 | 0.00 | 0.00 | 0.00 | 71 | 1008.9 |
| 20260505233802 | 63 | 246 | 1.7 | 6.1 | 0.00 | 0.00 | 0.00 | 71 | 1009.2 |
| 20260505233259 | 63 | 303 | 3.5 | 4.3 | 0.00 | 0.00 | 0.00 | 71 | 1009.1 |
| 20260505232756 | 63 | 284 | 2.6 | 8.7 | 0.00 | 0.00 | 0.00 | 72 | 1009.0 |
| 20260505232254 | 64 | 325 | 1.7 | 9.6 | 0.00 | 0.00 | 0.00 | 71 | 1008.8 |